Lapse_Rate
7.1 7.1 7.2 7.2 7.1 6.9 6.9 7.0 6.9 6.8 6.9 6.8 6.8 6.7 6.7 6.4 6.4 6.4 6.4 6.3 6.3 6.3 6.2 6.2 6.1 6.0 6.0 5.9 5.9 5.8 5.7 5.5 5.6 5.7 5.5 5.3 5.2 5.0 4.8 4.8 4.1 3.6 2.8 4.4
7.1 7.2 7.2 7.2 7.3 7.3 7.1 6.9 7.0 7.0 6.8 6.8 6.7 6.6 6.6 6.6 6.4 6.2 6.1 6.0 6.0 6.1 6.0 6.0 6.1 6.0 5.9 5.7 5.5 5.5 5.3 5.1 5.2 5.4 5.3 5.5 5.3 5.4 4.9 4.4 4.0 4.0 3.0 5.4
7.2 7.1 7.2 7.2 7.2 7.4 7.4 7.2 6.9 6.7 6.9 6.9 6.6 6.5 6.6 6.4 6.2 6.1 6.2 6.2 6.0 5.9 5.8 5.8 5.7 5.6 5.5 5.4 5.2 5.1 4.9 5.0 5.1 5.5 5.4 5.1 4.8 4.8 4.6 4.4 4.1 4.3 4.7 5.2
7.1 7.1 7.1 7.1 7.2 7.2 7.2 7.3 7.1 6.8 6.5 6.6 6.6 6.6 6.4 6.3 6.3 6.2 6.2 6.2 6.2 6.2 6.1 5.9 5.8 5.7 5.6 5.6 5.4 5.2 5.0 5.2 5.5 5.6 5.5 5.0 5.3 5.3 4.8 4.4 4.4 3.8 5.8 5.2
7.0 7.1 7.2 7.1 7.0 7.1 6.9 7.0 7.2 7.1 6.9 6.6 6.5 6.6 6.7 6.6 6.3 6.2 6.2 6.2 6.0 6.1 6.2 6.3 6.2 6.1 6.0 6.0 5.9 5.5 5.2 5.3 5.4 6.4 6.3 6.0 6.2 6.1 5.9 5.7 5.1 5.0 5.5 5.8
7.3 7.1 7.2 7.2 7.3 7.1 7.0 6.6 6.5 6.7 6.8 6.6 6.5 6.5 6.7 6.8 6.7 6.6 6.6 6.2 6.0 6.0 5.7 5.9 5.8 5.8 5.8 5.8 5.7 5.2 4.8 4.8 4.6 5.3 5.9 5.5 6.0 7.0 6.4 6.2 6.1 5.8 5.7 6.0
7.2 7.4 7.5 7.4 7.2 7.1 7.1 7.0 6.6 6.2 6.6 6.6 6.3 6.3 6.2 6.2 6.3 6.5 6.4 6.4 6.3 6.1 5.9 5.6 5.5 5.6 5.6 5.6 5.6 5.4 5.1 4.7 4.1 4.5 5.2 3.7 6.5 6.8 6.7 6.3 6.4 5.9 5.8 5.5
6.9 7.2 7.3 7.5 7.1 7.0 6.9 6.4 6.5 6.3 6.1 6.4 6.5 6.1 6.0 6.0 6.0 6.0 5.9 6.1 6.1 5.9 5.8 5.8 5.4 5.5 5.8 6.2 5.8 5.2 4.8 4.1 3.9 4.1 3.8 5.5 6.5 6.4 6.3 5.6 6.0 5.5 5.6 5.4
6.4 6.5 6.9 6.9 6.8 6.3 6.4 6.2 6.1 6.1 6.2 6.3 6.3 6.4 6.4 6.0 5.8 5.9 6.0 5.9 5.8 5.7 5.6 5.5 5.2 5.7 6.0 5.7 5.8 5.9 5.3 4.2 3.7 3.5 3.4 3.2 6.6 6.0 5.5 5.1 4.8 5.0 4.6 4.2
6.3 5.9 6.2 6.5 6.5 6.4 6.1 6.1 6.2 6.0 6.0 6.3 6.1 6.0 6.1 6.2 5.9 5.6 5.8 5.9 5.7 5.8 5.5 5.0 5.1 5.4 5.5 5.5 5.7 6.0 5.3 3.9 4.3 3.4 3.0 4.2 6.6 5.9 5.0 4.2 4.5 4.2 3.9 3.8
6.0 5.9 5.8 6.1 6.2 6.2 6.4 6.1 6.0 6.0 6.0 6.2 6.2 6.2 5.9 5.8 6.2 5.9 5.7 5.4 5.6 5.6 5.4 5.4 5.5 5.1 5.6 5.3 5.7 6.1 6.2 5.8 5.0 3.6 3.1 4.1 6.0 5.8 5.2 4.8 4.3 3.8 3.6 3.5
5.5 5.5 5.4 5.5 5.7 5.8 6.0 6.1 5.9 6.0 5.7 6.0 6.1 6.1 6.2 6.0 5.6 6.2 6.0 5.6 5.8 5.6 5.5 5.7 5.4 5.3 4.8 5.4 5.0 5.8 5.4 5.9 5.9 5.6 6.1 6.3 6.1 5.6 5.0 4.6 4.3 4.2 4.0 3.9
4.6 4.7 4.8 5.0 5.0 5.1 5.2 5.5 5.4 5.4 5.3 5.7 5.7 6.3 6.1 5.6 5.7 5.4 5.7 6.1 6.1 5.6 5.5 4.9 4.9 4.5 4.5 4.9 5.1 5.6 5.7 5.6 5.3 5.9 5.7 6.0 5.6 5.2 4.9 4.6 4.2 4.0 3.8 3.9
4.4 4.3 4.3 4.5 4.5 4.4 4.4 4.8 4.9 4.8 4.4 4.5 6.0 6.1 5.8 5.9 5.8 5.9 5.8 5.8 5.9 5.8 5.5 4.8 4.3 4.2 4.5 4.3 4.7 4.8 4.9 5.2 6.4 5.8 5.6 6.0 5.3 5.2 4.9 4.6 4.5 4.4 4.3 4.5
4.4 4.3 4.2 4.1 4.2 4.7 4.5 4.7 5.1 4.9 4.5 4.3 4.7 5.3 5.7 5.5 5.8 5.9 5.9 6.1 6.1 6.2 5.7 5.4 4.9 4.9 4.6 4.2 3.8 3.6 4.9 5.6 6.2 6.1 5.9 5.7 5.3 5.1 4.9 4.5 4.3 4.4 4.8 4.9
4.1 4.2 4.4 4.8 4.8 4.6 4.6 4.3 4.8 4.9 4.8 4.4 4.4 4.9 5.9 6.0 6.2 6.3 6.6 6.1 6.0 5.9 5.9 5.6 5.3 5.0 4.4 4.1 3.8 4.4 4.9 5.8 6.0 6.2 5.7 4.8 4.4 4.4 4.6 4.4 4.4 4.6 4.8 4.9
4.4 4.4 4.6 4.6 4.7 4.7 4.5 4.5 4.5 4.8 4.7 4.7 4.3 4.2 4.7 5.3 6.0 6.2 6.1 6.1 6.2 6.2 6.1 5.9 5.8 4.4 4.9 4.5 4.2 5.0 5.1 5.5 5.8 5.5 4.9 5.2 5.3 4.9 4.6 4.7 4.7 4.8 4.9 4.9
4.2 4.1 4.2 4.5 4.6 4.7 4.9 5.0 4.7 4.9 4.9 4.9 4.5 4.3 4.3 4.3 4.2 5.2 5.8 6.3 6.1 5.4 5.5 5.4 4.9 4.8 4.7 4.5 4.6 4.8 5.2 5.7 5.9 5.7 5.5 5.0 4.5 4.6 4.8 4.9 4.9 4.4 4.4 4.5
4.6 4.5 4.5 4.5 4.6 4.6 4.8 5.2 5.1 5.2 5.5 5.8 5.1 4.4 4.3 4.1 4.3 4.7 5.1 6.4 6.2 5.7 5.6 5.3 5.1 5.0 4.7 4.9 5.1 5.3 5.7 5.6 5.5 5.5 5.3 5.3 5.2 5.1 5.1 4.9 4.4 4.4 4.5 4.4
4.4 4.6 4.7 4.8 4.9 4.8 4.8 4.8 5.0 5.0 5.5 5.5 5.6 5.8 5.3 5.3 5.2 5.3 5.4 5.5 5.8 5.7 6.0 5.9 5.6 5.5 6.0 5.7 5.9 6.1 6.0 5.9 5.5 5.5 5.3 5.3 5.3 5.3 5.0 4.8 4.7 4.7 4.5 4.3
4.7 4.7 4.7 4.8 4.7 4.8 4.9 5.1 4.9 4.9 4.7 4.9 5.9 6.5 6.8 6.6 6.3 6.2 6.1 6.1 6.0 5.8 6.1 5.8 5.6 5.7 6.2 6.3 6.4 6.2 6.1 6.0 5.9 6.1 5.9 5.5 5.3 5.1 4.9 4.8 4.8 4.8 4.8 4.9
4.7 5.0 5.1 5.0 5.0 5.0 5.1 5.4 5.4 5.4 5.5 5.9 6.5 7.0 7.1 7.0 6.9 6.4 6.3 6.2 6.2 6.1 6.0 5.8 5.9 6.3 6.4 6.2 6.1 6.0 5.9 6.0 5.6 5.2 5.1 4.7 4.6 4.9 5.0 5.1 5.3 5.8 5.9 5.8
4.9 5.0 5.3 5.4 5.5 5.6 5.5 5.6 5.8 6.3 7.3 7.7 7.7 7.6 7.6 7.4 7.3 7.0 6.7 6.6 6.8 6.6 6.6 6.5 6.6 6.6 6.3 6.0 5.5 5.3 5.4 4.9 5.0 5.2 5.3 5.5 5.7 5.7 5.8 5.9 6.0 6.3 6.6 6.8
5.1 5.4 5.9 6.7 5.9 5.8 6.5 7.4 7.9 8.4 8.5 8.2 8.1 8.0 7.5 7.0 7.3 7.6 7.8 7.6 7.3 7.4 7.3 7.1 6.7 6.3 5.9 5.5 5.1 5.0 5.2 5.3 5.6 5.8 6.0 6.5 6.8 6.9 7.2 7.4 7.2 7.1 6.9 6.8
5.4 5.9 6.5 6.9 7.8 8.4 8.4 8.6 8.8 9.0 8.9 8.9 8.6 8.3 7.9 7.0 6.6 6.5 6.7 7.1 7.3 7.4 7.5 7.1 6.7 6.8 6.8 6.8 6.6 6.4 6.0 5.9 6.0 6.4 6.8 7.1 7.2 7.1 6.7 6.7 6.8 6.8 6.7 6.5
6.1 6.4 7.4 8.1 8.2 8.4 8.5 8.7 8.7 8.7 8.6 8.5 8.4 8.3 8.1 8.0 7.3 7.1 7.2 7.3 7.5 7.6 7.8 7.8 7.7 7.5 7.5 7.5 7.4 7.1 7.1 7.1 7.1 7.3 7.2 7.0 6.9 6.7 6.4 6.1 6.4 6.5 6.4 6.3
6.7 7.4 8.3 8.5 8.4 8.5 8.7 8.3 8.3 8.3 8.3 8.3 8.3 8.4 8.4 8.5 8.4 7.9 7.7 7.7 7.9 7.9 7.7 7.7 7.6 7.4 7.3 7.2 7.2 7.2 7.3 7.4 7.4 7.4 7.4 7.2 6.8 6.8 6.7 6.6 6.7 7.0 6.9 6.8
Wind_Speed
25 26 25 21 18 14 5 3 3 2 2 4 2 3 4 2 2 1 1 1 1 5 5 4 2 3 5 4 4 2 1 4 3 5 0 3 3 4 4 4 4 1 3 7
24 25 26 23 17 9 1 2 1 1 3 3 1 1 2 2 4 3 3 2 0 1 1 2 1 1 2 3 2 3 3 1 3 5 3 3 3 4 3 4 3 6 4 6
24 25 26 26 21 3 4 2 3 4 4 1 6 4 3 3 1 2 2 2 2 2 1 1 2 3 1 2 2 4 2 2 5 5 3 4 3 4 5 5 3 3 8 10
21 26 27 27 26 2 3 3 0 1 3 3 3 3 4 2 3 1 3 2 5 6 4 2 3 2 2 0 2 2 3 4 4 7 10 5 9 8 9 11 6 6 6 8
18 22 26 28 27 2 4 3 3 2 1 2 2 0 6 8 3 6 4 4 4 6 6 8 8 7 5 5 1 6 1 3 1 5 3 2 6 10 14 17 15 14 21 26
17 20 24 28 30 6 3 1 2 3 1 2 2 4 5 8 6 6 6 8 4 4 8 5 1 4 2 5 9 7 6 3 2 5 4 7 8 9 13 5 5 12 10 13
14 17 20 23 26 13 2 0 2 2 2 3 4 2 3 5 5 2 2 4 6 3 5 4 4 4 1 4 5 3 6 5 3 4 6 2 5 2 6 10 6 14 10 9
13 13 15 18 21 17 4 1 2 2 2 2 3 4 4 0 3 3 3 5 3 4 4 2 2 3 3 1 1 3 1 4 2 2 2 8 6 3 5 6 6 12 15 14
11 11 11 12 14 16 4 1 0 2 3 5 1 3 5 4 3 3 2 3 1 4 2 2 5 5 5 3 1 4 5 3 4 2 2 5 3 1 2 3 5 4 6 8
10 11 10 7 8 11 3 1 3 2 0 3 2 3 4 5 2 2 1 3 2 2 3 2 4 5 4 5 6 5 4 3 10 7 4 8 9 5 2 2 5 5 4 5
12 11 9 6 4 5 3 1 3 2 2 5 4 3 4 1 3 4 4 3 1 2 4 4 4 4 5 2 6 8 9 8 5 5 5 10 7 4 6 4 2 3 3 4
11 13 11 7 4 2 0 0 0 2 2 5 3 5 5 6 5 4 5 2 4 5 2 2 2 3 2 3 3 2 3 7 7 11 8 2 6 4 4 3 4 3 3 7
8 9 8 6 6 6 4 2 2 2 1 4 3 6 2 1 7 3 4 2 4 4 3 4 3 4 4 5 6 6 5 5 4 2 7 14 8 8 9 3 5 6 8 8
9 7 7 6 4 4 6 2 2 1 0 3 6 1 6 3 4 7 5 3 3 4 2 3 3 3 4 3 4 4 4 6 4 6 6 7 6 5 3 3 5 7 7 8
14 10 9 7 5 5 8 6 7 8 3 3 4 6 9 7 8 8 6 8 5 3 2 3 3 3 2 4 2 10 5 9 8 14 7 10 14 5 4 5 11 7 7 6
12 10 11 11 8 4 1 3 1 10 3 3 3 4 4 4 4 5 5 6 4 4 4 3 4 5 3 4 5 4 13 14 16 17 5 6 6 8 4 6 5 3 4 4
9 11 11 8 8 6 2 3 1 10 3 2 3 4 2 2 2 0 1 3 3 3 3 4 4 4 6 3 15 4 4 5 8 8 7 9 3 3 5 4 5 3 1 2
8 8 10 12 11 8 4 9 9 5 2 3 3 4 3 3 3 2 1 2 2 3 2 1 2 2 3 6 2 5 8 3 4 6 6 3 5 5 6 4 5 7 8 6
13 11 9 5 3 2 3 9 9 10 2 3 2 2 4 1 0 1 1 2 3 1 3 3 5 4 7 5 6 2 5 3 4 7 8 7 7 5 6 4 5 7 9 7
10 2 1 2 3 7 5 2 2 4 4 3 3 1 3 3 2 2 2 3 3 3 4 3 4 3 2 5 3 7 9 8 8 7 4 3 2 4 5 8 8 7 10 11
1 1 2 2 7 1 2 3 3 3 3 3 3 5 6 4 3 4 3 2 3 3 4 6 3 4 1 1 11 7 7 7 5 6 7 9 8 7 7 8 9 9 11 11
4 2 4 2 2 2 4 3 2 4 3 2 3 3 4 3 2 4 4 3 5 5 4 3 2 1 4 3 4 5 5 7 7 6 8 9 8 9 8 10 12 13 13 13
1 3 3 3 3 6 5 4 4 2 2 1 2 2 3 2 3 4 3 5 3 4 3 2 1 3 3 2 4 8 6 6 5 7 7 8 10 11 9 13 14 14 14 14
2 3 5 4 3 4 5 5 4 4 3 2 0 1 0 2 4 3 4 3 2 1 1 1 2 6 11 13 11 7 9 6 8 9 11 12 12 13 14 13 13 13 14 15
3 3 5 5 3 2 2 2 2 3 2 2 1 2 1 1 2 1 3 4 4 2 1 2 5 9 8 9 10 9 8 8 8 10 11 13 13 13 15 15 13 12 12 13
3 5 4 1 1 4 2 4 5 2 2 1 1 1 1 4 2 2 6 5 5 5 4 3 2 5 7 7 6 9 10 9 10 10 10 11 11 13 13 13 11 12 12 14
2 4 2 3 2 3 2 4 3 2 2 2 2 4 9 1 2 3 4 5 5 4 4 3 5 5 6 6 7 7 7 9 9 10 11 12 13 11 10 14 16 14 14 14
Wind_Direction
3 360 2 11 7 348 54 102 32 298 88 48 58 103 154 155 153 69 330 112 122 178 171 174 185 211 213 186 164 114 27 141 254 223 255 186 181 197 154 123 255 162 153 272
4 1 358 1 8 33 77 66 256 322 84 107 54 235 104 150 145 187 167 200 164 62 160 357 188 225 23 163 116 155 185 330 343 332 0 4 244 201 145 112 109 205 143 263
358 1 1 358 354 77 99 62 4 334 46 114 125 144 172 161 187 165 151 150 118 115 136 150 211 195 210 166 137 115 94 177 206 212 209 125 208 202 187 157 142 195 230 281
2 356 0 3 2 129 82 49 180 162 305 334 96 114 149 130 199 263 179 185 200 170 171 190 225 148 159 15 183 101 134 238 212 256 260 227 236 219 193 208 188 193 275 231
8 3 2 3 5 335 69 124 138 51 102 350 75 276 218 181 174 158 240 231 196 193 189 192 195 163 194 195 170 168 146 245 353 281 299 170 265 238 224 229 231 248 259 275
8 11 9 8 7 17 89 344 323 113 142 116 105 237 214 213 161 207 187 190 141 204 238 211 288 207 156 165 159 183 163 168 50 269 357 319 289 226 193 195 201 213 224 236
5 13 15 15 14 34 98 113 90 57 250 164 207 220 210 228 221 208 234 153 154 183 105 84 64 54 33 149 213 145 147 145 160 275 343 277 260 230 181 194 209 213 259 268
340 360 13 18 17 20 81 337 90 109 272 231 262 220 212 59 346 254 209 216 185 138 69 85 8 336 330 235 357 214 138 135 253 232 239 297 269 181 155 174 281 214 230 257
326 333 351 8 16 18 93 68 339 92 119 252 208 169 174 192 203 311 228 31 76 64 97 140 202 214 213 232 229 46 116 76 152 142 210 249 264 134 175 113 280 192 191 246
312 310 314 341 8 13 64 41 50 94 243 274 188 206 198 149 147 184 186 178 154 61 129 199 207 241 170 191 183 171 147 191 217 220 251 280 251 218 162 175 240 198 200 232
305 306 287 282 321 7 75 264 17 104 206 271 216 218 191 192 157 167 176 95 249 88 176 174 221 212 227 196 169 175 170 164 192 173 215 262 161 86 186 218 9 338 337 294
312 314 291 236 233 258 117 180 180 87 183 264 253 235 226 193 209 159 181 235 162 191 130 227 147 218 227 196 241 18 232 194 180 188 209 230 214 214 263 251 225 279 282 282
337 332 307 248 236 230 210 193 193 88 19 287 353 262 314 241 211 220 183 231 189 190 180 167 200 226 143 192 231 209 242 174 220 134 214 241 225 254 257 278 238 251 269 273
345 348 353 350 303 265 210 197 193 54 138 261 270 300 264 203 187 197 216 150 87 101 116 180 208 196 172 229 265 209 206 138 222 264 279 295 231 231 252 263 264 275 266 260
11 0 339 326 321 309 288 239 215 223 201 271 280 290 254 231 200 217 200 195 173 172 180 198 224 213 211 222 236 243 190 224 242 264 286 272 283 300 284 280 300 294 294 304
5 353 3 3 338 285 221 294 9 223 196 280 276 278 265 217 195 202 194 188 187 197 187 202 218 180 178 250 245 222 213 229 239 262 285 278 270 273 253 281 299 332 23 8
334 346 348 328 325 335 243 264 290 2 304 249 270 259 246 179 155 281 196 187 224 195 201 215 189 174 191 236 252 233 227 238 262 274 311 296 299 331 18 55 52 51 305 293
303 316 313 325 310 281 272 266 255 84 289 298 253 255 313 159 180 226 183 214 172 222 234 229 179 146 204 242 262 215 240 309 359 25 49 40 74 62 38 24 6 360 339 309
333 302 299 294 225 229 236 282 189 141 185 263 261 280 257 334 263 102 204 217 225 252 236 213 167 181 223 220 230 283 25 27 64 79 67 57 52 22 353 340 298 268 281 295
349 324 252 273 239 338 329 37 198 197 194 221 240 221 268 168 184 213 218 197 229 228 222 156 224 246 349 20 64 102 74 70 99 73 40 14 330 251 248 249 250 249 263 268
62 265 239 281 319 2 239 231 217 193 221 200 234 210 238 202 200 219 212 222 206 221 230 193 212 244 59 126 111 116 125 120 143 177 204 223 235 246 261 276 273 271 271 268
198 245 286 255 243 237 245 258 298 215 242 225 237 233 206 233 161 209 203 226 191 232 150 212 229 255 158 174 153 161 153 204 222 222 241 257 255 260 262 271 277 275 274 273
319 251 221 189 209 228 211 234 289 293 232 293 311 310 314 224 208 229 228 226 229 121 209 215 121 127 177 222 240 256 261 275 281 288 281 271 276 274 272 289 284 282 279 276
241 236 247 213 234 232 203 188 197 232 209 222 142 162 236 319 311 339 289 336 261 225 174 123 91 162 204 217 224 240 262 254 253 265 279 278 279 272 276 282 281 281 277 275
264 259 249 224 250 272 274 264 294 241 200 126 21 17 326 259 242 235 314 334 313 339 70 186 211 219 214 223 233 242 257 264 265 262 261 263 269 272 277 275 272 267 268 274
237 240 269 214 321 285 296 277 274 336 304 289 59 103 354 253 247 192 214 157 215 250 216 230 222 225 226 232 237 241 250 253 256 255 251 255 258 258 263 276 274 278 276 274
250 258 242 192 253 251 225 196 239 219 127 228 151 225 224 112 37 279 195 206 226 226 252 240 231 244 268 245 244 254 258 264 266 269 273 270 274 281 285 286 288 283 277 271